This demonstration page uses our WeatherBlox Daily Observations layout. Learn more.

Left ArrowRight Arrow

44.8408, -93.29828

Hourly Observations for September 29, 2021

Temp ( °F °C ) Dew Point ( °F °C ) Humidity (%) Winds ( mph kmh ) Pressure ( in mb ) Visibility ( mi km ) Precip ( " mm )
12:53 am 00:53 Mostly Clear 62 16.7 50 10 65 65 ESE 3 6 29.91 1013 10 16 0.00 0.00
1:53 am 01:53 Clear 62 16.7 50 10 65 65 ESE 6 9 29.92 1013 10 16 0.00 0.00
2:53 am 02:53 Clear 61 16.1 50 10 67 67 Calm 29.93 1013 10 16 0.00 0.00
3:53 am 03:53 Clear 60 15.6 51 10.6 72 72 ESE 7 11 29.93 1014 10 16 0.00 0.00
4:53 am 04:53 Clear 60 15.6 51 10.6 72 72 ESE 9 15 29.94 1014 10 16 0.00 0.00
5:53 am 05:53 Clear 59 15 51 10.6 75 75 SE 8 13 29.96 1014 10 16 0.00 0.00
6:53 am 06:53 Clear 59 15 51 10.6 75 75 SE 5 7 29.96 1015 10 16 0.00 0.00
7:53 am 07:53 Mostly Sunny 60 15.6 51 10.6 72 72 SE 5 7 29.98 1015 10 16 0.00 0.00
8:53 am 08:53 Mostly Sunny 63 17.2 53 11.7 70 70 SSE 7 11 29.98 1015 10 16 0.00 0.00
9:53 am 09:53 Partly Cloudy 66 18.9 54 12.2 65 65 SE 9 15 29.98 1015 10 16 0.00 0.00
10:53 am 10:53 Mostly Cloudy 70 21.1 56 13.3 61 61 SE 7 11 29.99 1016 10 16 0.00 0.00
11:53 am 11:53 Mostly Cloudy 74 23.3 58 14.4 57 57 SE 7 11 29.98 1015 10 16 0.00 0.00
12:53 pm 12:53 Mostly Cloudy 78 25.6 58 14.4 50 50 SE 7 11 29.98 1015 10 16 0.00 0.00
1:53 pm 13:53 Mostly Cloudy 82 27.8 59 15 46 46 SE 9 15 29.96 1015 10 16 0.00 0.00
2:53 pm 14:53 Mostly Cloudy 83 28.3 59 15 44 44 SE 8 13 29.96 1014 10 16 0.00 0.00
3:53 pm 15:53 Mostly Cloudy 85 29.4 60 15.6 43 43 ESE 9 15 29.95 1014 10 16 0.00 0.00
4:53 pm 16:53 Mostly Cloudy 83 28.3 61 16.1 48 48 ESE 14 22 29.95 1014 10 16 0.00 0.00
5:53 pm 17:53 Mostly Cloudy 81 27.2 62 16.7 53 53 ESE 12 19 29.97 1015 10 16 0.00 0.00
6:53 pm 18:53 Cloudy 79 26.1 62 16.7 56 56 ESE 14 22 29.98 1015 10 16 0.00 0.00
7:53 pm 19:53 Cloudy 76 24.4 62 16.7 62 62 SE 13 20 29.99 1016 10 16 0.00 0.00
8:53 pm 20:53 Cloudy 74 23.3 62 16.7 67 67 ESE 10 17 30.00 1016 10 16 0.00 0.00
9:53 pm 21:53 Cloudy 73 22.8 62 16.7 69 69 SE 8 13 30.02 1017 10 16 0.00 0.00
10:53 pm 22:53 Cloudy 71 21.7 62 16.7 73 73 SE 8 13 30.03 1017 10 16 0.00 0.00
11:53 pm 23:53 Partly Cloudy 70 21.1 62 16.7 76 76 SE 9 15 30.04 1017 10 16 0.00 0.00

Powered by AerisWeather